Location: Forest
(37.3641°N, 79.2902°W)
Time: 20:30:23
(UTC+00:00)

Explorer 11/Cluster Stage 4 - Pass Details

Date: 12 November 2024
Orbit: 464 x 1202 km, 28.8° (Epoch: 03 December)

Event Time Altitude Azimuth Distance (km) Brightness Sun altitude
Exits shadow 10:05:14 16° 197° (SSW) 1,542 8.0 -21.7°
Maximum altitude 10:06:46 19° 171° (S) 1,354 7.9 -21.4°
Drops below altitude 10° 10:09:35 10° 125° (SE) 1,729 9.2 -20.8°
Sets 10:12:08 0° 106° (ESE) 2,544 10.8 -20.3°
